...

List of available maps for Lagabuse and Safelist bots.


Total size: 7 GB


  Name Size Uploaded at Games in last 3 months
(10) Pudge Wars v2.03d (smaller).w3x 283.86 KB 22.03.2020 7
(10)BattleShipsCaribbean 11.9.w3x 3.66 MB 01.02.2020 1
(10)CardShuffle3.4z(AI2.1).w3x 1.29 MB 01.04.2020 1
(10)DustwallowKeys.w3m 299.63 KB 13.03.2020 4
(10)Escape Gay Space v1.8.w3x 262.37 KB 11.05.2019 10
(10)RagingStream.w3x 194.59 KB 13.03.2020 2
(10)SkibisCastleTD.w3x 1.54 MB 07.03.2020 15
(12) Stronghold 2 teams.w3x 274.69 KB 09.12.2019 2
(12)Angleshore City.w3x 204.72 KB 03.09.2019 10
(12)DivideAndConquer.w3m 340.76 KB 13.03.2020 8
(12)DivideAndConquerRemastered.w3x 379.32 KB 12.02.2020 5
(12)Elite Snipers 3.0 [TFT] v1fb -opt.w3x 1.19 MB 28.03.2020 0
(12)EliteSnipers3.0[RoC]v13.w3m 1.32 MB 28.03.2020 1
(12)EmeraldGardens,.w3x 318.13 KB 17.01.2020 3
(12)EmeraldGardens.w3x 311.42 KB 13.03.2020 8
(12)HurricaneIsle.w3x 356.08 KB 15.02.2020 8
(12)Ice Crown - [Version_2.5.8].w3x 2.39 MB 13.10.2019 28
(12)IceCrown.w3m 316.97 KB 13.03.2020 8
(12)Icecrown Glacier TH.w3x 1.17 MB 05.07.2019 3
(12)Sunken Ruins Beijos de Luz.w3x 372.18 KB 14.02.2020 2
(12)ThreeFriends.w3x 238.6 KB 19.03.2020 2
(2)BanditRidge.w3x 165.05 KB 13.03.2020 8
(2)Blood Gulch.w3x 196.98 KB 29.03.2020 1
(2)BootyBay.w3m 121.95 KB 13.03.2020 9
(2)Circumvention.w3x 97.04 KB 13.03.2020 2
(2)EchoIsles.w3m 94.28 KB 25.03.2019 3
(2)EchoIsles.w3x 114.33 KB 13.03.2020 3
(2)GlacialThaw.w3x 160.45 KB 13.03.2020 0
(2)Harrow.w3m 88.64 KB 13.03.2020 15
(2)HillsOfGlory.w3m 93.01 KB 13.03.2020 0
(2)Korea.w3x 122.47 KB 13.03.2020 2
(2)MeltingValley.w3x 163.4 KB 13.03.2020 0
(2)OgreMound.w3m 78.72 KB 13.03.2020 0
(2)PlunderIsle.w3m 116.55 KB 13.03.2020 0
(2)PlunderIsle_corruption.w3x 636.83 KB 18.10.2019 1
(2)RoadToStratholme.w3x 160.27 KB 13.03.2020 0
(2)SecretValley.w3x 215.47 KB 13.03.2020 2
(2)ShrineOfTheAncients.w3x 139.7 KB 13.03.2020 0
(2)TerenasStand.w3m 93.46 KB 26.12.2019 7
(2)TerenasStand.w3x 98.13 KB 13.03.2020 0
(2)TheTwoRivers.w3x 103.34 KB 13.03.2020 0
(2)TirisfalGlades.w3x 98.27 KB 13.03.2020 0
(3)Forestwalk.w3m 199.28 KB 13.03.2020 15
(3)IsleOfDread.w3m 163.68 KB 13.03.2020 1
(3)Nighthaven.w3m 87.4 KB 13.03.2020 2
(3)Unholy Invasion v2.2b.w3x 4.16 MB 28.03.2020 4
(4)Adrenaline.w3m 63.56 KB 13.03.2020 1
(4)Adrenaline.w3x 65.23 KB 13.03.2020 5
(4)Avalanche.w3x 142.4 KB 13.03.2020 2
(4)Borderlands xD.w3x 105.58 KB 12.03.2020 0
(4)Borderlands.w3m 101.16 KB 13.03.2020 1
(4)BridgeTooNear.w3x 170.73 KB 13.03.2020 3
(4)BrokenShard.w3x 166.21 KB 13.03.2020 0
(4)BurbenogTDv2.34eLegends.w3x 292.43 KB 26.07.2017 21
(4)CastleFightEU_2.0.17.w3x 1 MB 24.11.2017 3
(4)CentaurGrove.w3x 177.43 KB 13.03.2020 0
(4)ColdHeart.w3x 131.29 KB 13.03.2020 0
(4)Deadwaterdrop.w3m 92.24 KB 13.03.2020 0
(4)Deathrose.w3x 351.78 KB 13.03.2020 1
(4)DesertStrife.w3x 94.11 KB 13.03.2020 0
(4)DevilsCauldron.w3x 141.64 KB 13.03.2020 1
(4)DragonMountain.w3m 139.66 KB 13.03.2020 2
(4)Duskwood.w3m 194.26 KB 13.03.2020 33
(4)ExcavationSite.w3x 248.81 KB 13.03.2020 0
(4)FloodPlains.w3x 206.03 KB 13.03.2020 0
(4)FloodPlains1v1.w3x 215.33 KB 13.03.2020 0
(4)Frostsabre.w3m 207.46 KB 13.03.2020 3
(4)FrozenClover.w3x 215.48 KB 13.03.2020 0
(4)Goldshire.w3x 186.06 KB 13.03.2020 3
(4)HailStone.w3x 187.42 KB 13.03.2020 0
(4)HarvestMoon.w3m 191.95 KB 13.03.2020 0
(4)HeartToHeart.w3m 124.01 KB 13.03.2020 2
(4)HeartToHeart0.w3m 123.72 KB 23.10.2019 5
(4)HearthglenHills.w3x 223.66 KB 13.03.2020 0
(4)Hellfire.w3x 108.1 KB 13.03.2020 0
(4)IceFlow.w3x 104.36 KB 13.03.2020 0
(4)IceForge.w3x 129.16 KB 13.03.2020 12
(4)Islands.w3x 166.96 KB 13.03.2020 0
(4)Legends.w3m 181.14 KB 13.03.2020 0
(4)Lost Temple 2.w3m 265.71 KB 21.02.2020 7
(4)LostTemple.w3m 239.2 KB 13.03.2020 3
(4)LostTemple.w3x 240.23 KB 13.03.2020 12
(4)Monolith [v3.00 FINAL].w3x 1.92 MB 10.03.2019 1
(4)MysticIsles.w3m 190.21 KB 13.03.2020 1
(4)ParadiseIslands.w3x 178 KB 13.03.2020 0
(4)PhantomGrove.w3x 202.88 KB 13.03.2020 0
(4)Predators.w3x 215.01 KB 13.03.2020 2
(4)Romania(2019).w3x 158.11 KB 28.03.2020 1
(4)Roundabout.w3x 233.02 KB 13.03.2020 0
(4)Ruins.w3x 180.7 KB 13.03.2020 0
(4)StoneColdMountain.w3x 184.71 KB 13.03.2020 3
(4)Tanaris.w3x 149.87 KB 13.03.2020 6
(4)TidewaterGlades.w3x 205.62 KB 13.03.2020 0
(4)TranquilPaths.w3m 247.64 KB 13.03.2020 1
(4)TurtleRock.w3x 142.93 KB 13.03.2020 17
(4)TwistedMeadows.w3x 208.49 KB 13.03.2020 17
(4)Venetia.w3x 81 KB 13.03.2020 0
(4)WarChasers.w3m 227 KB 19.01.2015 11
(4)Wetlands.w3x 107.54 KB 13.03.2020 1
(4)Whirlwind.w3x 115.93 KB 13.03.2020 0
(4)WindyWaste.w3x 84.24 KB 13.03.2020 0
(4)w3aLostTemple.w3m 234.5 KB 15.07.2019 17
(5)TheGlaive.w3m 147.15 KB 13.03.2020 0
(6)Andorhal.w3x 166.36 KB 13.03.2020 11
(6)Arena grom 6.1.7.w3x 6.88 MB 22.01.2020 1
(6)BloodstoneMesa.w3x 155.35 KB 13.03.2020 0
(6)CastleFight_ES1.30.w3x 541.22 KB 13.10.2019 6
(6)CastleFight_ES1.30_sl.w3x 586.8 KB 11.12.2017 19
(6)CopperCanyon.w3x 176.2 KB 13.03.2020 7
(6)DarkForest.w3m 235.78 KB 13.03.2020 2
(6)Darkshire.w3x 207.66 KB 29.03.2020 0
(6)Demon'sCrossing.w3x 221.98 KB 13.03.2020 5
(6)DragonBlight.w3x 269.69 KB 13.03.2020 1
(6)DragonFire.w3m 214.56 KB 13.03.2020 7
(6)DrywaterGulch.w3m 218.65 KB 13.03.2020 0
(6)Duststorm.w3x 206.06 KB 13.03.2020 1
(6)EmeraldShores.w3x 193.43 KB 13.03.2020 0
(6)EnakrosWay.w3x 224.47 KB 13.03.2020 7
(6)Everfrost.w3x 220.34 KB 13.03.2020 0
(6)GnollWood.w3m 238.28 KB 13.03.2020 0
(6)GnollWood.w3x 243.38 KB 13.03.2020 1
(6)HavenOfTheDamned.w3x 163.04 KB 13.03.2020 1
(6)Highperch.w3x 229.65 KB 13.03.2020 0
(6)HinterlandRaid.w3x 178.33 KB 13.03.2020 1
(6)Jack-o-Lantern.w3x 168.02 KB 13.03.2020 0
(6)JungleFever.w3x 197.5 KB 13.03.2020 0
(6)Monsoon.w3x 222.94 KB 13.03.2020 4
(6)Moonglade.w3m 148.27 KB 13.03.2020 0
(6)Moonglade.w3x 149.38 KB 13.03.2020 2
(6)RiceFields.w3x 186.64 KB 13.03.2020 2
(6)RiverOfSouls.w3x 216.99 KB 13.03.2020 0
(6)RollingHills.w3x 205.28 KB 13.03.2020 2
(6)RuinsOfStratholme.w3x 190.11 KB 13.03.2020 3
(6)SavageStorm.w3x 232.57 KB 13.03.2020 1
(6)ScorchedBasin.w3m 144.19 KB 13.03.2020 0
(6)ScorchedBasin.w3x 148.02 KB 13.03.2020 0
(6)SilverpineForest.w3x 251.1 KB 13.03.2020 0
(6)StranglethornVale.w3x 169.61 KB 13.03.2020 0
(6)Stromguarde.w3m 216.79 KB 13.03.2020 3
(6)SunrockCove.w3x 267.13 KB 13.03.2020 0
(6)SwampOfSorrows.w3m 213.52 KB 13.03.2020 0
(6)The Lost Village.w3x 348.56 KB 29.03.2020 0
(6)ThunderLake.w3x 273.55 KB 13.03.2020 0
(6)TimbermawHold.w3m 168.73 KB 13.03.2020 9
(6)TimbermawHold.w3x 169.38 KB 13.03.2020 0
(6)Typhoon.w3x 159.55 KB 13.03.2020 1
(6)UpperKingdom.w3x 230.99 KB 13.03.2020 0
(6)Wellspring.w3x 103.49 KB 13.03.2020 30
(6)WheelofChaos.w3x 147.08 KB 13.03.2020 0
(6)WizardsRetreat-CnF.w3x 152.74 KB 22.02.2020 3
(6)WizardsRetreat.w3x 138.94 KB 13.03.2020 0
(8)AzerothGrandPrix2.2.w3x 1.65 MB 31.01.2020 3
(8)Battleground.w3m 221.67 KB 13.03.2020 0
(8)Battleground.w3x 225.91 KB 13.03.2020 1
(8)BlastedLands.w3m 181.15 KB 13.03.2020 2
(8)BloodvenomFalls.w3m 227.53 KB 13.03.2020 0
(8)Cherryville.w3x 271.85 KB 13.03.2020 0
(8)Deadlands.w3x 177.98 KB 13.03.2020 1
(8)Deadlock.w3x 267.56 KB 13.03.2020 0
(8)Deathknell.w3x 249.02 KB 13.03.2020 0
(8)DragonFalls.w3x 229.2 KB 13.03.2020 0
(8)Feralas.w3x 224.04 KB 13.03.2020 1
(8)Friends V1.02.w3x 410.24 KB 22.02.2020 3
(8)Friends(W).w3x 364.91 KB 22.02.2020 3
(8)Friends.w3x 230.82 KB 13.03.2020 3
(8)FullScaleAssault.w3x 313.1 KB 13.03.2020 0
(8)GardenOfWar.w3m 203.58 KB 13.03.2020 0
(8)GardenOfWar.w3x 197.81 KB 13.03.2020 5
(8)GoldRush.w3x 370.13 KB 13.03.2020 2
(8)GolemsInTheMist.w3m 231.92 KB 13.03.2020 1
(8)HurricaneIsle.w3x 329.43 KB 13.03.2020 0
(8)LastManStanding.w3x 302.63 KB 13.03.2020 2
(8)MarketSquare.w3x 180.59 KB 13.03.2020 0
(8)Mur'gulOasis.w3x 246.34 KB 13.03.2020 0
(8)Northshire.w3x 234.73 KB 13.03.2020 1
(8)PetrifiedForest.w3m 271.36 KB 13.03.2020 3
(8)PetrifiedForest.w3x 1.2 MB 02.06.2019 3
(8)Plaguelands.w3m 249.43 KB 13.03.2020 0
(8)PlainsOfSnow.w3m 233.21 KB 13.03.2020 0
(8)PlainsOfSnow.w3x 237.48 KB 13.03.2020 1
(8)RockQuarry.w3x 358.9 KB 13.03.2020 0
(8)Sanctuary.w3x 202.61 KB 13.03.2020 0
(8)ShamrockReef.w3x 252.35 KB 13.03.2020 0
(8)Slalom.w3x 232.46 KB 13.03.2020 0
(8)SlalomBigWar.w3x 467.57 KB 13.03.2020 1
(8)SpiderFalls.w3x 237.25 KB 13.03.2020 0
(8)TheCrossroads.w3x 208.38 KB 13.03.2020 3
(8)TheCrucible.w3m 220.05 KB 13.03.2020 2
(8)TwilightRuins.w3x 307.04 KB 13.03.2020 0
(9)Riverrun.w3m 306.95 KB 13.03.2020 2
(9)RiverrunBattle.w3x 4.74 MB 16.06.2019 4
(9)RoundVillage.w3x 271.69 KB 13.03.2020 3
(9)Twilight FrozenMaul 7.4.w3x 112.02 KB 27.03.2020 0
-Maze Maker-.w3x 416.07 KB 28.03.2020 2
-opt Daow4.4.w3x 1.34 MB 17.03.2020 0
10 Hero Siege - Helms Deep .w3m 79.48 KB 23.03.2020 1
10 Hero Siege - Helms Deep 2.00 Beta 23.w3x 826.7 KB 23.03.2020 0
101 Rounds v2.91.f4.w3x 3.32 MB 23.11.2019 3
1098159431XHeroSiege232.w3x 502.43 KB 19.12.2019 19
12FluffyHeroSurvivalTest3.w3x 1.13 MB 22.03.2020 0
28429CastleFightEU1.25a1.w3x 1.1 MB 18.10.2019 8
2P BloodElves06.w3x 9.33 MB 06.02.2020 1
2P Human01 v2.0.w3x 463.8 KB 07.05.2019 1
2P Human01 v2.1.w3x 463.83 KB 22.06.2018 2
2P Human02 v2.2.w3x 495.16 KB 05.02.2020 3
2P Human02.w3x 456.44 KB 05.02.2020 3
2P Human03 v2.2.w3x 439.44 KB 05.02.2020 2
2P Human04 v2.3.w3x 415.15 KB 05.02.2020 3
2P Human05 v2.6.w3x 619.44 KB 18.11.2018 1
2P Human06 v2.2.w3x 557.71 KB 05.02.2020 1
2P Human07 v2.2.w3x 472.33 KB 05.02.2020 1
2P Human08 v2.1.w3x 407.95 KB 05.02.2020 1
2P Human09 v2.2.w3x 576.4 KB 05.02.2020 1
2P Human10 v2.1.w3x 3.5 MB 05.02.2020 2
2P Night Elf 01 V.2.0.w3x 803.51 KB 17.02.2020 1
2P Night Elf 02 V.1.4.w3x 654.92 KB 18.02.2020 1
2P Night Elf 03 V1.7.w3x 557.49 KB 18.02.2020 1
2P Night Elf 04 v1.8.w3x 1.05 MB 18.02.2020 1
2P Night Elf 05 v1.6.w3x 629.46 KB 18.02.2020 2
2P Night Elf 06 v1.4.w3x 1.18 MB 18.02.2020 2
2P Orc01 v1.3.w3x 645.41 KB 16.02.2020 1
2P Orc02 v1.3.w3x 406.57 KB 17.02.2020 1
2P Orc03 v1.3.w3x 650.69 KB 17.02.2020 1
2P Orc04 v1.3.w3x 666.32 KB 17.02.2020 1
2P Orc05 v1.1.w3x 845.2 KB 17.02.2020 1
2P Orc06 v1.3.w3x 701.9 KB 17.02.2020 3
2P Orc07 v1.1.w3x 433.52 KB 17.02.2020 1
2P Orc07 v1.2.w3x 434.51 KB 17.02.2020 1
2P Orc08 v2.5.w3x 614.43 KB 17.02.2020 1
2P Orc08 v2.8.w3x 616.83 KB 17.02.2020 1
2P Undead01 v2.1.w3x 626.6 KB 06.02.2020 4
2P Undead02 v2.1.w3x 700.23 KB 06.02.2020 4
2P Undead03 v2.2.w3x 745.8 KB 06.02.2020 4
2P Undead03 v2.6.w3x 7.82 MB 06.02.2020 1
2P Undead04 v2.2.w3x 625.68 KB 14.02.2020 3
2P Undead05 v2.2.w3x 665.62 KB 28.06.2019 1
2P Undead06 v2.2.w3x 563.64 KB 15.02.2020 1
2P Undead07 v2.2.w3x 374.22 KB 15.02.2020 1
2P Undead08 v2.2.w3x 620.4 KB 29.06.2019 2
300 - Three Hundred v1.79 Madness.w3x 1.43 MB 03.01.2020 14
300 - Three Hundred v8.0.w3x 2.41 MB 14.03.2020 2
300 4.99.w3x 3.85 MB 14.03.2020 1
300 Spartans - Ultimate Version.w3m 1.71 MB 12.03.2020 7
3P Human07 wassim.w3x 1.44 MB 25.02.2020 2
3P Orc01 v2.0.w3x 6.94 MB 14.12.2019 0
3P Orc02 v2.0.w3x 6.11 MB 15.12.2019 0
3P Orc04 v2.0.w3x 11.22 MB 15.12.2019 0
7 blademasters.w3x 124.36 KB 08.10.2019 5
82_10k_bs_sote.w3x 7.99 MB 10.09.2019 0
82_Hero_of_The_Emp.w3x 7.85 MB 11.07.2019 132
83_Hero_of_The_Emp.w3x 8.01 MB 17.02.2020 21
84_Hero_of_The_Emp.w3x 7.99 MB 25.02.2020 124
9xHeroDefenseVN_7_4_2019.w3x 71.28 MB 01.12.2019 3
AAA_1.69K_OPT.w3x 3.12 MB 06.09.2019 0
AOS GT The Frozen Throne v28.w3x 1.16 MB 21.03.2020 0
ARS Ver 101 fix.w3x 38.58 MB 14.03.2020 1
ASTDC S4 v1.6 Fix4.w3x 62.48 MB 10.03.2020 0
ASTTFDBWRPG_S1_v0.03c2.w3x 7.12 MB 26.01.2020 1
ASTTFDSLRPG_S1_v0.01e.w3x 37.97 MB 05.02.2020 1
ASTTFDSLRPG_S1_v0.01g.w3x 39.7 MB 08.02.2020 2
ASTTFDSLRPG_S2_v0.02b.w3x 44.88 MB 12.02.2020 4
ASTTFDSLRPG_S4_v0.03c.w3x 81.29 MB 27.02.2020 5
ASTTFDSLRPG_S4_v0.03e.w3x 87.42 MB 04.03.2020 6
ASTTFDSLRPG_S4_v0.04e.w3x 90.41 MB 23.03.2020 3
ASTTFDWLRPG_S8_v0.28a.w3x 86.88 MB 01.01.2020 0
ASTTFDWLRPG_S8_v0.28d.w3x 93.35 MB 26.01.2020 71
Abazan Cetesi 69.w3x 7.41 MB 22.10.2019 1
Acient Titans.w3x 1.24 MB 31.03.2020 0
An Ogres Mission v1.22c.w3x 5.98 MB 20.10.2019 4
Ancient Lords 0.1.w3x 13.58 MB 21.03.2020 4
Ancient Lords ALPHA.w3x 6.65 MB 21.03.2020 1
Angel Allstars 1.70b.w3x 3.02 MB 29.10.2019 0
Angel Arena -X-.w3x 436.21 KB 03.03.2019 1
Angel Arena Allstars 1.70a.w3x 3.02 MB 07.05.2017 11
Angel Arena Eclipse 2011-2012.w3x 2.9 MB 09.03.2020 5
Angel-samurai-Z-v303C.w3x 7.97 MB 26.12.2019 0
Angel-samurai-Z-v303D.w3x 7.99 MB 24.10.2019 1
AngelArenaEclipseXVII.w3x 3.62 MB 19.02.2020 2
AnimalRPGTest4.6fixu.w3x 27.81 MB 23.02.2020 1
Anime Fantasy v0.7a.w3x 7.97 MB 23.10.2019 8
Anime Fantasy v1.1.w3x 18.64 MB 07.01.2020 4
Anime Grand Battle 2.0c.w3x 7.78 MB 20.02.2019 2
Anime Rpg NC.w3x 205.9 KB 29.03.2020 1
Anime Team Survival 4.9f.w3x 40.09 MB 02.02.2020 2
Anime Team Survival 4.9v.w3x 41.49 MB 02.02.2020 5
Anime Team Survival 5.0Beta.w3x 59.89 MB 02.02.2020 8
Anime wars finals.w3x 3.59 MB 22.03.2020 0
Anime_Fight_Beta_1.39o9.w3x 417.36 KB 19.03.2020 0
Archer Wars Legacy 1.3e.w3x 1.92 MB 18.03.2020 2
Are You A Perfect Idiot v1.05.w3x 295.33 KB 22.03.2020 5
Are You A Retard v6.0.w3x 97.32 KB 23.08.2018 7
Are You A Retard v6.29.w3x 262.35 KB 23.08.2017 5
Are you a Lucker 1.3.w3x 2.04 MB 09.06.2018 27
Art Of Defense 3.34.w3m 180.96 KB 17.01.2020 1
Art of Defense Dalaran CustomRaces.w3m 138.2 KB 18.01.2020 4
Art of Defense Palace v9.w3x 3.72 MB 17.01.2020 1
Attack of the Brazilians.w3x 3.3 MB 22.03.2020 6
BTanks880c.w3x 1.18 MB 08.03.2020 2
BTanks_LineWAR_14_opt.w3x 1.35 MB 09.11.2019 2
BVO New World 5.0 Beta.w3x 7.21 MB 22.02.2020 2
BVO New World 5.0.w3x 7.29 MB 27.02.2020 1
Banjoball v1.21 [PROT].w3x 7.93 MB 30.03.2020 2
Battle_Tanks_9.04_Beta_2.w3x 4.65 MB 23.09.2019 4
Battlestadium DON 1.9.w3x 7.98 MB 19.11.2019 1
Battlestadium DON 2.0.w3x 37.53 MB 22.03.2020 2
Bayus Firestorm TD D12.w3x 807.93 KB 02.11.2019 19
Binders v3.0[aMCP] (Final).w3x 1.09 MB 03.03.2020 5
Black Forest 1.03.w3x 6.56 MB 30.12.2019 0
Bleach vs One Piece v2.08b.w3x 3.95 MB 22.03.2020 8
Blixels Tower Defense v1.0.w3m 134.08 KB 26.10.2019 3
Blood Tournament (Beta 31).w3x 423.49 KB 09.12.2019 0
Blood Tournament ULTRA v9(Final).w3x 255.05 KB 22.03.2017 1
Blood Tournament v2.9.w3x 356.43 KB 20.06.2019 5
Borderlands.w3x 80.36 KB 12.03.2020 1
BvO Another v1.1a.w3x 7.97 MB 15.12.2019 3
CF3T204opt.w3x 1.48 MB 24.03.2020 1
COT RPG Plains of Medea v2.4x.w3x 1.36 MB 14.03.2020 1
CPAnime X Hero N v6.37b2-2019.w3x 7.83 MB 03.12.2019 1
Call of Duty Nazi Zombies.w3x 733.28 KB 12.03.2020 3
Campaign Orc.w3x 82.62 KB 23.01.2020 1
Canned_Bread109_Eng.w3x 7.66 MB 03.01.2020 21
Capture The Flag SC2 - Vr1.5.w3x 2.22 MB 19.02.2020 1
CardShuffleEdition3.5.w3x 1.23 MB 25.03.2020 1
Castle Defense v8.3.w3m 136.68 KB 03.05.2019 3
Castle Fight Supremacy v1.3g.w3x 6.84 MB 19.05.2019 4
Castle Fight v1.15b.w3x 1.34 MB 06.05.2019 44
Chaos Dimension 2.10.5.w3x 4.92 MB 07.03.2020 1
Civilization Wars v2.18.w3x 2.6 MB 25.12.2019 1
CoTNevermore_v1.33.15b.w3x 29.12 MB 24.03.2020 0
Code Geass - JvB 1.2.1.w3x 6.91 MB 23.02.2020 1
ColdHeart v.0.52.w3x 135.78 KB 22.02.2020 1
Coop ScourgeX01.w3x 909.86 KB 13.03.2020 2
Coop ScourgeX02.w3x 1013.88 KB 13.03.2020 2
Coop ScourgeX03.w3x 1.11 MB 14.03.2020 1
Coop ScourgeX04.w3x 857.81 KB 14.03.2020 1
Coop ScourgeX08.w3x 939.93 KB 17.03.2020 3
Counter-Strike TD 4.0 Beta 32.w3x 717.32 KB 24.10.2019 1
Counter-Strike TD 4.0 Beta 35.w3x 1 MB 27.10.2019 2
Counter-Strike v1.3(P).w3x 1.87 MB 20.06.2019 1
Custom Castle Defense v4.2.0.E3(p).w3x 526.49 KB 28.10.2019 4
Custom Hero Arena 6.2(protected).w3x 2.24 MB 20.02.2020 4
Custom Hero Defense v0.2.w3x 4.51 MB 29.03.2020 2
Custom Hero Footies v4.0a_ux.w3x 3.51 MB 08.03.2020 5
Custom Hero Footies v4.1~1.w3x 3.62 MB 26.03.2020 0
Custom Hero Line War AQUA.w3x 945.01 KB 23.12.2019 4
Custom Hero Line v1.61a.w3x 624.29 KB 29.03.2020 2
Custom Hero Line v1.61c.w3x 624.8 KB 01.11.2017 1
Custom Hero Survival 20.2.w3x 5.37 MB 28.01.2020 4
Custom Hero Survival 5.0b.w3x 908.97 KB 22.02.2019 6
Custom Hero Survival 5.1.w3x 907.53 KB 01.06.2019 3
Custom Hero Survival 9.00.w3x 970.18 KB 12.08.2011 13
Custom Hero Survival Final 2.7.w3x 2.18 MB 24.12.2019 40
Custom Hero Survival b4.0a.w3x 899.94 KB 11.09.2019 18
CustomHeroArenaDefenseV107f.w3x 3.61 MB 29.09.2018 4
CustomHeroSurvival v3.0zP.w3x 891.55 KB 29.09.2019 5
Custom_Hero_DefenseTSH.18.8H.w3x 5.62 MB 23.03.2020 0
Custom_Hero_DefenseTSH.19.1.w3x 5.74 MB 28.03.2020 0
Custom_Hero_DefenseTSH.19.2.w3x 5.76 MB 28.03.2020 0
Custom_Hero_Survival_v2.9.w3x 3.68 MB 15.03.2020 8
Custom_Hero_Survival_v3.3.1.w3x 1016.46 KB 26.03.2019 2
Cyber RPG 3.189OVer ENG fix.w3x 38.25 MB 19.03.2020 1
DBZ Arena 6.9.w3x 4.54 MB 29.10.2019 2
DBZ Supreme RPGV0.5.w3x 3.64 MB 12.03.2020 0
DBZ TD 3Player .w3x 79.01 KB 31.03.2020 1
DBZ Tribute Ultra V10Beta10.w3x 5.7 MB 26.12.2019 8
DBZ hero maze V6.w3x 113.11 KB 27.03.2020 0
DDayJudgement(2019).w3x 3.79 MB 30.01.2020 13
DL Hero Siege - Evil Spawn 3.6.w3x 3.09 MB 19.03.2020 5
DL RFTD 0.2 EN.w3x 3.15 MB 05.03.2019 0
DL_RFTD_2.5VN.w3x 3.67 MB 09.12.2019 0
DPDA v0.91.w3x 8.81 MB 21.03.2020 0
DW ORPG v3.7g fix.w3x 40.15 MB 23.03.2020 2
Dacia Orpg v1.38D.w3x 5.11 MB 15.02.2020 3
Dacia Orpg v1.38D[SPMOD].w3x 6.59 MB 16.03.2020 0
Daemonic Sword ORPG 6.77.w3x 15.09 MB 15.03.2020 8
Dalaran Arena v4.61.w3x 703.75 KB 29.03.2020 1
DarkDeeds6.w3x 1.19 MB 28.03.2020 0
Darkest_Dungeon_ORPG_v7.1.w3x 71.93 MB 12.03.2020 0
Darwins Island TFT v2.45c Makruras.w3x 625.34 KB 24.03.2020 0
Darwins Island v3.0.w3x 538.96 KB 26.03.2020 3
Day of the Cow TD v. 0.99b prot.w3x 286.95 KB 23.03.2020 0
DeepSeaOnline2.5b_eng1.w3x 18.85 MB 28.01.2020 1
Defi4nc3s ORPG V0.16D.w3x 2.35 MB 26.03.2020 1
Demon e scape.w3x 51.84 KB 19.01.2020 1
Devils Nightmare TD v3.6~1.w3x 135.04 KB 02.11.2019 14
Divide and Fight v2.01.w3x 4.98 MB 20.10.2019 0
Divide and Fight v2.02e.w3x 5.87 MB 30.03.2020 0
DivideAndConquer_-_Custom_Map_.w3m 332.79 KB 11.02.2020 1
Doodad Christmas.w3x 2.67 MB 29.03.2020 0
Doom v2.01d.w3x 259.52 KB 16.03.2020 1
DotA v6.74c AI 1.3.w3x 7.04 MB 20.03.2020 60
DotA v6.74c LoD v5e.w3x 7.74 MB 20.03.2020 5
DotA v6.77b AI 1.1.7 Fun 2.7c.w3x 7.49 MB 19.12.2019 1
DotA v6.78c AI 1.4e.w3x 6.99 MB 01.08.2015 47
DotA v6.78c.w3x 7.88 MB 29.03.2020 0
DotA v6.83d.w3x 7.84 MB 02.04.2017 16
DotA_Allstars_6.89a7.w3x 66.54 MB 26.07.2019 0
DotA_Allstars_6.90a8.w3x 84.6 MB 21.12.2019 15495
DotA_LoD_6.86e2.w3x 25.59 MB 21.10.2019 35
DotA_im_3.79E_EN_Stable.w3x 7.53 MB 16.12.2019 0
Dota Imba v3.86b EN AI.w3x 7.51 MB 16.12.2019 0
Double Defense.w3x 314.1 KB 22.09.2019 1
Dragon Ball Z GT 2012[Full].w3x 3.95 MB 22.11.2019 0
Dragonball Budokai 2.3.5.w3x 15.57 MB 16.02.2020 1
Dunia Impian RPG S1 v1.2c_ENG_Fix.w3x 8.43 MB 20.07.2019 4
ETD 1.3.w3x 80.27 KB 09.12.2019 0
Eclipse Beta v1.18Betafinal.w3x 2.31 MB 19.12.2019 0
Element TD 4.1.w3x 1.4 MB 26.03.2020 0
Element TD 4.3b.w3x 1.29 MB 09.10.2017 29
Element TD 5.0b.w3x 1.3 MB 05.10.2018 36
Element TD 9.4.w3x 737.78 KB 05.10.2018 44
Element TD.w3x 678.67 KB 26.03.2020 10
ElementalCoop-5-v20.w3x 162.83 KB 29.03.2020 1
Elemental_RPG_2.2.w3x 747.72 KB 29.11.2019 2
Enfo's 1 Team 7-WAY 31-3-2016.w3x 1.1 MB 28.06.2019 1
Enfos Team Survival 3002.w3x 551.97 KB 10.04.2019 2
Enfos Team Survival 3003.w3x 537.92 KB 02.08.2017 30
Enfos Team Survival Fast Loading v1.2 (speeded).w3x 457.93 KB 30.03.2020 0
Enfos_MT_V193.w3x 1.29 MB 12.01.2019 11
Epic Hero.w3x 7.6 MB 03.09.2019 1
FERD_3.80B_ENG.w3x 32.63 MB 03.03.2020 54
FOCS3 Another 8.7a(Asia).w3x 5.24 MB 25.03.2020 0
FOCS3 Another 8.8zi(Asia).w3x 7.99 MB 21.02.2020 3
FOCS3 Another 9.6B03.w3x 15.43 MB 13.09.2019 15
FOCS3 Another 9.7C02.w3x 16.48 MB 06.03.2020 5
FOCS3_Another_9_6H04.w3x 16.19 MB 05.01.2020 11
FOOTMEN FRENZY AI 9.6.w3x 405.42 KB 25.07.2018 6
FW RPG S2 1.4d_fix.w3x 43.6 MB 26.01.2020 3
Fantasy Life 1.30d.w3x 4.01 MB 29.11.2019 8
Farm TD 0.2 EN Best Version!!.w3x 3.15 MB 13.08.2019 81
Farm TD 0.2 EN Best Version.w3x 3.15 MB 21.03.2020 0
Farmer vs Hunter S3 0.19b.w3x 1.49 MB 12.11.2019 1
Farmer vs Hunter S3 0.24 B.w3x 1.52 MB 23.11.2019 19
FarmerVsHunterR-V44 FIX.w3x 840.12 KB 04.10.2019 3
Fight Of Anime 3.0b.w3x 7.57 MB 15.01.2020 5
Fight Of Anime 3.0c.w3x 7.89 MB 30.09.2018 8
Fight of Characters 8.5b.w3x 4.79 MB 13.08.2011 8
Fighting for Azeroth 3D v105b.w3x 3.46 MB 19.11.2019 1
Final Fantasy - Epic RPG v0.7.2.w3x 1.84 MB 07.03.2020 2
Final Fantasy Epic RPG v0.8.2.w3x 2.8 MB 25.03.2020 2
Final Fantasy Epic RPG v0.8.6.w3x 2.53 MB 29.03.2020 3
Final Fantasy Tactics Ver 2.2.w3m 205.86 KB 23.03.2020 0
Footman Frenzy Ultimate with AI.w3x 588.24 KB 28.12.2019 28
Footman Frenzy v12.6 AI ENG.w3x 2.28 MB 14.02.2020 7
Footman Frenzy v5.0 AI.w3x 237.12 KB 13.03.2017 2
Footman_Frenzy_495b.w3x 1.6 MB 23.02.2020 1
Footmen Frenzy v4.2 Profess.w3x 168.72 KB 19.12.2019 2
Footmen Frenzy v4.2 Professional.w3x 120.93 KB 19.12.2019 6
Footmen Frenzy v5.5.3W.w3x 421.81 KB 25.07.2018 0
Footmen_Frenzy_14.1b.w3x 7.98 MB 19.12.2019 1
Footmen_Frenzy_17.6.w3x 3.22 MB 20.12.2019 3
Fortress Survival Alpha 6.54P.w3x 2.3 MB 14.10.2019 6
Fortress Survival Alpha 6.76P.w3x 2.41 MB 30.11.2019 13
Fortress_Survival_Alpha_6.77B70P.w3x 2.59 MB 30.11.2019 12
Founders Of The North 1.25.w3x 4.09 MB 11.04.2019 6
Freeze TagPP3.0.w3m 958.91 KB 19.03.2020 3
Freeze TagPP6.00.w3m 2.08 MB 25.03.2020 0
Full Invasion 0.61.w3x 4.09 MB 19.01.2020 1
FusionTDC026.w3x 112.11 KB 18.12.2019 0
Futere HeroSiege 1.1.w3x 94.85 KB 09.02.2020 2
Fuza 12.0pro.w3x 344.52 KB 19.01.2020 1
GGII EXPx5 1.5 U-22.w3x 5.89 MB 25.11.2019 1
GGII EXPx5 1.7 U-ENG.w3x 6.31 MB 02.03.2020 1
GOD RPG2.3.w3x 2.04 MB 30.03.2020 0
GREEN TD 17.6.w3x 255.97 KB 22.07.2019 37
GREEN TD V.0 [ZERO]w3x.w3x 177.41 KB 28.03.2020 1
GREEN TDTEST.w3x 707.28 KB 02.11.2019 3
GaiasORPG_v1_2C(13).w3x 52.4 MB 30.03.2020 0
GaiasORPG_v1_2C(18).w3x 59.38 MB 30.03.2020 0
GaiasORPG_v1_2D(5).w3x 59.85 MB 22.04.2018 21
GaiasORPG_v1_2D(6).w3x 64.5 MB 28.08.2019 0
Garden Of War.w3x 198.23 KB 11.10.2019 6
GbF Tower Defensive v.1.1.w3x 646.01 KB 30.03.2020 3
Gem TD Plus 1.5.5.w3x 566.94 KB 29.03.2020 4
Get The Banker V3.0.w3x 1022.59 KB 30.03.2020 2
Glaive_Masters_v0.08.w3x 294.8 KB 26.01.2020 2
Glavie Maze TD 4.5.w3x 740.84 KB 14.03.2020 3
Go Fish 2 - Deep Sea (v1.2).w3x 799.98 KB 20.02.2020 3
Go Fish 2 - Deep Sea (v1.4).w3x 1004.12 KB 21.02.2020 2
GoH RPG v1.35c opt.w3x 5.66 MB 07.07.2019 7
GoH RPG v1.35c.w3x 5.86 MB 24.03.2020 6
Gods Of Olympus 3.0.0.w3x 7.65 MB 18.01.2020 1
Gordo Drogado 3.0 (BR).w3x 648.3 KB 29.03.2020 0
Gordo Drogado v2.0 (BR).w3x 648.29 KB 29.03.2020 0
Gothic One v3.4.w3x 7.75 MB 19.01.2020 1
Grand_Blood_Tournament_4.7a.w3m 101.71 KB 07.10.2019 2
GreatWarofOutlands.w3x 8.41 MB 19.01.2020 3
Greatest orc mazer TD V1.1.w3m 133.65 KB 30.03.2020 2
Greece 1.4e.w3x 2.84 MB 31.03.2020 1
Greece 1.7d.w3x 3.7 MB 29.03.2020 0
Green Circle TD 12.0.w3x 4.11 MB 04.03.2020 9
Green Circle TD Mega 10.5.w3x 6.35 MB 14.03.2020 3
Green Circle TD Mega 10.6.w3x 6.62 MB 18.11.2019 11
Green Circle TD v12SProt.w3x 3.51 MB 21.11.2019 12
Green Circle TD v9.9.w3x 956.49 KB 23.08.2019 4
Green TD Apocalypse FIX.w3x 722.19 KB 02.11.2019 36
Green TD Apocalypse v1.1.w3x 438.57 KB 02.11.2019 2
Green TD ProS v9.3 Cazador.w3x 190.73 KB 30.03.2020 0
Green TD Pros 20.5.w3x 729.32 KB 22.03.2017 4
Green TD Ultimate v5.0.w3x 710.99 KB 29.02.2020 3
Green TD wipeout v2.6.w3x 318.02 KB 05.01.2020 3
Guardians of the Light 2-0f.w3x 7.33 MB 05.01.2020 24
HELLHALT v5.0.52.w3x 15.03 MB 24.02.2019 50
HELLHALT v5.0.74 (1).w3x 15.21 MB 27.03.2020 1
HM RPG v7.18h Eng_slk.w3x 14.97 MB 28.11.2019 1
HM RPG v7.20 Eng_slk.w3x 14.97 MB 11.01.2020 4
HM RPG v8.00c Eng_slk.w3x 14.97 MB 14.02.2020 1
HM RPG v8.00d Eng_slk.w3x 14.97 MB 26.03.2020 0
HM RPG v8.00f Eng_slk.w3x 15.03 MB 09.03.2020 20
Hell TD v4.15 NEW TERRAIN.w3x 135.68 KB 04.12.2019 0
Hell TD v5.08.w3x 2.6 MB 20.07.2019 2
Hell VS Heaven (Final Versi.w3x 3.53 MB 23.02.2020 2
Hero Line wars Deluxe 13.1.w3x 263.96 KB 08.03.2019 14
Hero Push 3.1.w3x 1.34 MB 15.03.2020 0
Hero Push 3.3.w3x 1.93 MB 04.11.2019 3
Hero Strife TD v1.25.w3x 1.48 MB 21.03.2020 0
Hero SurvivalX10.0s.w3x 2.66 MB 12.02.2020 6
Hero Wars Elite 4.2.w3m 541.86 KB 05.01.2020 2
HeroPushPUB3.6.1p.w3x 1.78 MB 04.11.2019 1
Hero_of_The_Empire_v1.248.w3x 7.03 MB 19.08.2019 68
Hero_of_The_Empire_v1.249.w3x 7.03 MB 11.03.2020 20
Heroes of Light ORPG v3.2g.w3x 4.35 MB 30.10.2019 1
Heroic Town 3.41u.w3x 4.09 MB 14.09.2019 6
Heroic Town 3.71b en-ru.w3x 2.47 MB 16.03.2020 0
HolyWarFinal.w3x 7.67 MB 11.02.2017 11
Hungry Felhounds 3.0 FINAL.w3x 488.85 KB 23.01.2020 7
Hungryhungryfelhounds.99.w3x 360.29 KB 13.12.2013 3
IDProt4.0.1.w3x 4.15 MB 28.03.2020 2
IS9RPG1.1[ENG].w3x 39.84 MB 19.03.2020 0
Ice Mountains v9.00.w3x 9.17 MB 16.03.2020 0
Imba Spell Race v0.76b.w3m 245.55 KB 18.01.2020 1
Impossible Bosses BetaV3E.w3x 1.33 MB 10.11.2019 8
Impossible Siege v0.60b.w3x 5.27 MB 11.01.2020 3
Impossible_Bosses_BetaV3V.w3x 2.11 MB 13.11.2019 13
Incoming V1.32.w3x 1.24 MB 19.03.2020 0
Infected-Zombies-v2.3.w3x 7.8 MB 03.12.2019 3
Infection attack 1.7.w3x 617.08 KB 24.11.2019 10
Infection attack 1.8.w3x 581.55 KB 19.02.2020 6
InsanityAttack_v4.5_protected.w3x 5.73 MB 18.12.2019 6
Into The Darkness v1.10.w3x 7.68 MB 29.02.2020 1
Island Troll Tribes 1A90EE.w3x 2.21 MB 28.03.2020 0
Island Troll Tribes v2.90b.w3x 2.33 MB 23.11.2019 12
Island Troll Tribes v2.99f.w3x 2.66 MB 28.03.2020 1
Island of Erotic Pleasures 100x.w3x 1.47 MB 31.01.2020 2
Islands and Portals 3.9.w3x 3.67 MB 19.01.2020 1
Isles of Doom.w3x 302.38 KB 21.02.2020 2
JDay196F.w3x 3.07 MB 17.03.2020 0
JDay199b.w3x 3.43 MB 31.03.2020 0
JDay200b.w3x 2.4 MB 17.03.2020 0
Journey to the End V5.3d.w3x 46.83 MB 19.03.2020 0
Journey to the End V5.4 FINAL.w3x 46.58 MB 19.03.2020 5
Julians_RPG_1.1.w3x 2.53 MB 31.10.2019 2
Jungle Race 1.50.w3x 237.15 KB 17.08.2017 12
Jungle TD v1.4.w3x 85.88 KB 30.03.2020 2
Jungle Trolls Reborn 2.1.w3x 2.29 MB 15.03.2020 0
JungleTrolls_5.6.20.w3x 3.48 MB 15.03.2020 1
Jurassic Park Survival FINAL Beta.w3x 1.42 MB 02.06.2019 36
JurassicParkEE v6.4.w3x 3.46 MB 03.12.2019 37
KORRAGS ARENA.w3x 2.07 MB 28.03.2020 21
Katil Kim 1.6e by _WardeN_.w3x 698.8 KB 12.03.2020 1
Katil Kim 1.6e.w3x 724.99 KB 12.03.2020 0
Killing Spree 2.8 [Official].w3x 3.67 MB 22.01.2020 2
Kodo Tag XTreme 10.4.w3x 471.97 KB 22.03.2020 2
LASC6.4.6.w3x 6.29 MB 24.03.2020 0
LOD SUPER v2.7 Official.w3x 7.92 MB 16.12.2019 0
LTD HQ Mega 3.5 (B11).w3x 19 MB 23.03.2020 2
LTDv493.w3x 6.03 MB 24.11.2019 3
LTDv495.w3x 6.04 MB 14.12.2019 5
LTDv496.w3x 6.04 MB 21.12.2019 2
LTDv498.w3x 6.33 MB 10.03.2020 31
LTW 3players1.3.w3x 93.39 KB 28.11.2019 0
La gran aventura 1.7.w3x 4.06 MB 19.12.2019 0
Last Humanity 0.0.0.w3x 632.81 KB 23.01.2020 1
Last Man Standing.w3x 302.55 KB 21.02.2020 5
Legacy of Warcraft 3.8C Public.w3x 2.43 MB 17.03.2020 0
Legend Of Dragon SUPER v2.2.w3x 7.62 MB 11.12.2019 1
Legend Of Dragon SUPER v2.4.w3x 8.16 MB 12.12.2019 1
Legend Of The Dragon Final.w3x 7.41 MB 06.12.2019 6
Legend Of The Dragon v1000.w3x 3.77 MB 31.03.2020 0
Legendary ORPG V2.0.w3x 3.07 MB 22.03.2020 1
Legends of Gothic A5H3.w3x 746.86 KB 19.01.2020 1
Legends of Gothic G2.w3x 717.05 KB 23.01.2020 1
Legends of Gothic H3.3.w3x 742.26 KB 19.01.2020 4
Legends of Gothic M.w3x 540.97 KB 19.01.2020 8
Legends of Gothic Z.w3x 840.91 KB 17.01.2020 1
Legion TD HELL v3.98c.w3x 2.05 MB 08.05.2017 22
Legion TD Mega 3.43.w3x 1.05 MB 06.02.2017 45
Legion TD Mega 3.44.w3x 1.06 MB 12.03.2020 2
Legion TD Mega 3.5 (B13).w3x 1.1 MB 26.03.2020 1
Legion TD Mega 3.5.w3x 1.16 MB 02.08.2017 12
Legion TD Mega 3.5x10 Final.w3x 2.26 MB 24.12.2015 6
Legion TD Mega 3.6c1.w3x 4.34 MB 23.09.2019 5
Legion TD Mega 4.1 x20.w3x 1.31 MB 28.08.2019 9
Legion-TD-Mega-4.5-x20.w3x 3.47 MB 22.03.2020 33
LegionTDWar160bp.w3x 1.41 MB 05.02.2020 8
Legion_TD_Mega_3.43c3.w3x 1.7 MB 30.03.2020 0
Line Tower Wars 2007 v32.7.w3x 242.15 KB 22.03.2020 1
Line Tower Wars 45.w3x 241.53 KB 05.02.2019 21
Line Tower Wars Next Gen 1.4D.w3x 235.9 KB 04.12.2019 5
Line tower war 25.2 NO AIR.w3x 223.87 KB 04.12.2019 7
Line_tower_war_27.1.w3x 190.16 KB 23.08.2019 6
Liquid Tower Defense Version 2.7.w3m 135.99 KB 03.04.2019 13
LoaP Power Ultimate 50K[P].w3x 4.86 MB 24.03.2020 4
Lord of the rings RPG.w3m 208.31 KB 28.01.2020 1
Lords TD (solo) 0.90c beta (protected).w3x 137.05 KB 30.03.2020 0
Lords of Europe 5.4 TMPeditionv1.w3x 1.86 MB 28.03.2020 1
Lords of Europe.w3x 2.79 MB 26.03.2020 11
Lotr Hero Siege v3.09.w3x 1.47 MB 18.03.2020 1
Ltw-Evolution v2.39 opt.w3x 339.9 KB 12.11.2019 0
MM-RPG-059-XP.w3x 1.79 MB 23.03.2020 0
MM_RPG_v0.77.w3x 3.51 MB 15.03.2020 5
MM_RPG_v0.79.w3x 3.52 MB 19.03.2020 1
MM_RPG_v0.80.w3x 3.52 MB 21.03.2020 3
MM_RPG_v0.81.w3x 3.53 MB 23.03.2020 6
MaD Balls Arena 1.30a.w3x 323.17 KB 15.03.2017 7
Mafa - Solo.w3m 98.86 KB 29.03.2020 3
Mafa TD Queen v4.5 (UH).w3x 400.89 KB 24.11.2019 28
Map Tong Hop v 49.0.w3x 3.99 MB 21.03.2020 7
Marvel TD v.2008.w3x 447.23 KB 18.03.2017 8
Masin RPG 1.86E.w3x 7.86 MB 29.03.2020 0
MasinFullbirthA8.3.w3x 10.17 MB 29.03.2020 1
MasinFullbirthB6.9.w3x 16.59 MB 20.03.2020 0
MasinRPGFullbirth0.10.w3x 22.62 MB 29.03.2020 0
MasinRPGFullbirth0.17.w3x 25.41 MB 29.03.2020 0
MasterPiece RPG.w3x 10.94 MB 17.12.2019 0
MayoHeroDefense122-1307094318.w3x 4.47 MB 07.10.2019 11
Mazing Contest v1.2.w3x 124.03 KB 14.03.2020 15
Middle Earth Risk 9.311 official.w3x 3.84 MB 27.03.2020 1
Millenium_RPG_v7.06j Eng.w3x 36.34 MB 16.12.2019 0
Minas Tirith Defense v1.2.w3x 6.58 MB 23.01.2020 1
MineralZ 1.3.w3x 3.17 MB 07.08.2019 30
Mini Football.w3x 1.1 MB 12.03.2020 4
Minotaurs Labyrinth 2 v1.2 (BNET).w3x 456.13 KB 31.03.2020 1
Mirana Wars v.5.07.w3x 1.65 MB 29.03.2020 1
Mirana Wars v5.03.w3x 956.1 KB 28.04.2019 6
Mirana Wars v5.04.w3x 1.23 MB 29.03.2020 1
Mirana_vs_Pudge_Christmas.w3x 657.11 KB 08.02.2020 3
Missile War v0.67[p].w3x 252.21 KB 31.07.2019 3
MooMoov3.9GenerationX.w3x 3.28 MB 08.11.2019 13
MooMoov4.08GenerationX.w3x 5.89 MB 12.03.2020 5
NCD 6.9.w3x 45.52 MB 04.03.2020 12
NCD5.6TWIP120514.w3x 10.23 MB 30.03.2020 0
NGHUGE.w3x 551.38 KB 25.03.2020 0
NNS7.5.w3x 120.44 MB 28.03.2020 3
NOTD Aftermath 1.5d Beta 8.w3x 3.54 MB 01.04.2020 0
NOTD_Aftermath_1.6a.w3x 3.84 MB 01.04.2020 0
NOTD_Aftermath_1.6a_h3.w3x 4 MB 01.04.2020 0
NWU_S3_B14_FIX4.w3x 36.97 MB 16.10.2019 2
Naruto Battle Arena v2.8.w3x 3.34 MB 30.05.2019 0
Naruto Castle Defense 9.4.w3x 7.46 MB 11.01.2020 12
Naruto Castle Defense v2.3T2.w3x 5.87 MB 07.09.2019 7
Naruto Castle Defense v2.4T7.w3x 6.11 MB 12.03.2020 3
Naruto Ultimate RPG 3.1.w3x 3.9 MB 30.03.2020 0
Naruto World Ultimate 3.7 s2.w3x 4.31 MB 07.03.2020 3
NarutoWars92.w3x 3.88 MB 17.03.2020 1
Naruto_Battle_Royal_V4.4.w3x 3.96 MB 30.05.2019 3
Naxxramas v3.0.w3x 6.27 MB 22.01.2020 1
Nevermore,Mirana,Pudge,GM Wars 4.8.w3x 1.56 MB 15.09.2017 4
Nex Hero Defense v1.3.w3x 1.86 MB 25.03.2020 9
NightStalker TD 2.2.w3x 1.34 MB 19.09.2019 5
NightStalker TD evo V15.w3x 114.85 KB 05.02.2020 8
Nimos Tower Def Z-3.0.w3x 501.54 KB 31.03.2020 2
Nox_2.6_ENG.w3x 41.59 MB 09.02.2020 7
Noxirian RPG_engv7_fix2_test.w3x 46.25 MB 29.01.2020 11
Noxirian RPG_engv7_fix3.w3x 46.29 MB 25.08.2019 13
OGR_1.48e.w3x 3 MB 21.03.2020 0
Olympus Arena v1.5.w3x 291.97 KB 19.01.2020 9
Opt-Land Of Oblivion orpg v0.48b.w3x 4.32 MB 20.03.2020 3
Orc Gladiators 2.9.w3x 662.54 KB 27.03.2020 0
Orc Gladiators 4.1.w3x 1.75 MB 27.03.2020 0
Orc Gladiators Revenge 1.29fc.w3x 1.61 MB 16.08.2018 6
Orc Gladiators Revenge 1.30fa.w3x 1.42 MB 15.02.2019 31
Orc Gladiators X v2.0.w3x 363.27 KB 24.08.2019 19
Orc Gladiators v2.70 PublicBETA2d.w3x 1.14 MB 27.03.2020 11
Orc gladiators-Locked.w3x 875 KB 13.09.2019 2
Orc_Gladiators_3.0~1.w3x 605.86 KB 27.03.2020 0
POLAR ESCAPE 3 -Protected-.w3m 130.8 KB 21.03.2020 2
Pains-Party 1.47.2.w3x 977.59 KB 30.05.2019 3
Paranormal_A9.w3x 22.84 MB 29.03.2020 19
Pig Farm Defense.w3m 79.68 KB 26.11.2019 2
Pimp My Peon v6.3 AI.w3x 440.83 KB 23.09.2019 15
Pimps 1.1.3.w3x 604.64 KB 25.03.2020 0
Pimps 1.1.6 Prot hacked.w3x 155.64 KB 25.03.2020 0
Pimps1.1.3(easier).w3x 606.44 KB 29.03.2020 2
Platform Escape 2.01pro~1.w3m 1.26 MB 07.05.2019 5
Poke maul Ruby 3.8.w3x 158.05 KB 15.03.2020 7
Pokemaul TD v4.3b.w3x 160.45 KB 13.05.2019 12
Pokemon Maul TD 1.1a Prot.w3x 2.32 MB 27.03.2020 2
Pokemon World 9.1.w3x 336.42 KB 02.02.2020 4
PokemonDefense Final.w3x 7.5 MB 06.09.2018 12
Polar Escape 6 F I N A L .w3m 1.37 MB 21.03.2020 1
Power Towers v1.31.w3x 350.85 KB 05.03.2020 7
Protect The House ! v6.9.w3x 2.57 MB 19.03.2019 5
Pudge Wars 1.25.w3x 669.8 KB 20.10.2019 3
Pudge Wars 1.26.w3x 670.42 KB 15.08.2019 41
PyramidEscapeV4_6b.w3x 837.41 KB 08.09.2019 2
PyramidEscapeV4_7.w3x 837.39 KB 12.09.2019 4
PyroTD0.21b.w3x 1.85 MB 01.12.2019 12
RESIDENTEVILSURVIVOR-2.0[PROT].w3x 1.2 MB 07.08.2019 2
RFTD_0.1aEN.w3x 1.93 MB 02.12.2019 1
RFW v1.1.w3x 1.86 MB 28.03.2020 0
Rabbits vs Sheep WsW 0.83b BETA.w3x 2.56 MB 15.03.2020 3
Rabbits vs Sheep WsW 1.2b.w3x 2.67 MB 02.09.2018 18
RabbitsVsSheep1.0.62.w3x 319.86 KB 29.03.2020 0
RabbitsVsSheep3.0.33.w3x 355.14 KB 06.11.2017 8
Raging Stream V 0.1.w3x 487.3 KB 17.03.2020 12
Railroad Raid.w3x 719.35 KB 20.01.2020 1
Random Anime Skill v26 Fix.w3x 7.96 MB 14.03.2020 0
Random Farm TD 0.47a ENG fix2.w3x 1.91 MB 23.03.2020 2
RequiemOfTheGods171.w3x 5.29 MB 28.03.2020 2
Resident Evil Nightmare~2.5.w3x 2.59 MB 22.03.2020 0
Return of Legends v1.21.w3x 4.92 MB 26.12.2019 1
Rise of Civilizations v1.8(prot)2.0.w3x 5.74 MB 31.03.2020 0
Rise of Civilizations v2.04a.w3x 7.03 MB 31.03.2020 1
Rise of a Realm 1.09.w3x 15.04 MB 26.01.2020 2
Rise of a Realm 1.27.w3x 16.86 MB 26.01.2020 2
Roguelike 2.32B (Prot).w3x 5.43 MB 29.02.2020 9
Roguelike 2.35 (Prot).w3x 5.4 MB 02.02.2020 1
Rose QuarTz RPG Re 0.498fix.w3x 38.35 MB 03.03.2020 6
Run GAY Run 2.8 SE.w3x 1.64 MB 24.03.2017 39
Run Kitty Run 3 - v1.9.w3x 878.37 KB 22.03.2020 1
Ryoko_TD_v253.w3x 949.23 KB 19.03.2020 0
S R N_RPG 5.1B.w3x 36.72 MB 27.01.2020 2
SHDR_twrpgS4v0.24d_eng.w3x 40.45 MB 04.02.2020 21
SNIPER arena v2.8.w3x 1.2 MB 28.03.2020 1
Sapphire Tower Defense v1.7.w3x 261.2 KB 22.04.2019 7
Scar_rpg1d.w3x 32.26 MB 02.02.2020 4
Scar_rpg1h_fix14.w3x 32.65 MB 14.02.2020 5
Sedonia RPG v.0.88.w3x 27.99 MB 13.10.2019 0
Sexy Escape Modificado.w3x 93.89 KB 29.03.2020 0
Sexy Escape v0.1c Eng.w3x 101.2 KB 29.03.2020 1
Sexy Escape v0.3.w3x 167.68 KB 29.03.2020 1
Sexy Escape vFinal.w3x 374.22 KB 29.03.2020 1
Shango TW 17 Plerchi.w3x 191.52 KB 22.03.2020 3
SheepTAG_Platinum_1.07.w3m 118.73 KB 16.02.2020 1
Siege of QuelThalas 5.4.w3x 6.63 MB 17.03.2020 0
Skeletal Annihilation 2.81.w3x 853.97 KB 09.03.2020 0
Slalom New Version 1.18.w3x 4.29 MB 13.03.2020 1
Slide Ninja Slide - NumbEncore~3.w3x 504.97 KB 28.12.2018 4
SniperArena2.0[protected]].w3x 1.23 MB 28.03.2020 0
Snipers Duel 4.8.w3x 2.62 MB 28.03.2020 0
SotDRP [1.03] -Mountain.w3x 3.99 MB 28.03.2020 2
SotDRPX1.051 AshenvaleOpt.w3x 6.77 MB 29.03.2020 3
Soulchess1.32b.w3x 6.16 MB 06.10.2019 2
Spellcraft_Remastered_6.00.w3x 4.36 MB 22.11.2019 11
Spellcraft_Remastered_6.2.w3x 5.14 MB 16.03.2020 7
Spellcraft_Remastered_6.2b.w3x 5.14 MB 28.03.2020 0
Spiral Defense v20.3.w3x 359.42 KB 27.02.2020 7
Stack TD Alpha v0.1.3.w3x 410.08 KB 09.11.2019 2
Stack TD v0.4 Alpha.w3x 390.37 KB 05.11.2019 1
Stronghold_3teams_313.w3x 259.84 KB 19.02.2019 12
Stronghold_v31_pureedition.w3x 586.42 KB 27.03.2020 0
Stronghold_v34.w3x 257.39 KB 24.03.2020 9
Sunken City v2.4.0.w3x 10.67 MB 04.10.2019 5
Sunken City v2.4.2.w3x 12.93 MB 06.04.2019 44
Super TD.w3x 169.52 KB 29.03.2020 1
Survival 1.370.w3x 1.48 MB 15.03.2020 10
Survival1.062.w3x 772.8 KB 15.03.2020 0
Survival1.357.w3x 1.29 MB 28.03.2020 0
SurvivalChaos2.99p.w3x 7.65 MB 09.07.2018 7
SurvivalChaos2v2p.w3x 3.62 MB 19.02.2020 2
SurvivalChaos3.01p.w3x 10.01 MB 22.03.2020 0
SurvivalChaos3.03.w3x 9.87 MB 20.01.2020 28
SurvivalChaos3.10.w3x 9.87 MB 25.02.2020 16
SurvivalChaos3.2p.w3x 14.37 MB 22.03.2020 0
SurvivalStand 1.7p.w3x 2.26 MB 12.01.2020 2
Surviving Archimonde Rage.w3x 5.78 MB 27.05.2019 4
Survivors [v1.63d] 1-4.w3x 4.25 MB 13.03.2020 0
Survivors_1.62.w3x 3.34 MB 30.04.2019 0
Swarm_086.w3x 1.53 MB 23.02.2020 2
Switching Gnoll Wood.w3x 264.98 KB 22.09.2019 7
TCoM ORPG v5.08.w3x 46.03 MB 05.12.2019 0
TCoM ORPG v5.09f.w3x 45.63 MB 08.12.2019 0
TCoM ORPG v5.18.w3x 44.87 MB 01.03.2020 12
TCoM_ORPG_v5.17a.w3x 47.62 MB 24.02.2020 9
TD Burbenog [ Delta Spirit ]v3.03f.w3x 5.94 MB 21.05.2019 5
TD[1].20050912.sp50.w3x 137.55 KB 01.02.2020 4
TESTME_Arak.w3x 17.36 MB 30.03.2020 1
TKoK_Eastern-3515-5.w3x 21.03 MB 03.05.2019 40
TKoK_Eastern-3515-5b.w3x 21.04 MB 13.05.2019 2
TKoK_Eastern-3515-5c.w3x 21.03 MB 17.07.2019 1838
Team Custom Hero Survival 5.1.w3x 326.47 KB 10.03.2020 2
TempleHorror 1.2.w3x 471.9 KB 02.02.2020 1
Terrania v113 Prot.w3x 3.02 MB 13.03.2020 0
Test of the Idiot.w3x 237.52 KB 02.11.2019 1
Teste para Retardados 14.e meio.w3x 123.94 KB 29.03.2020 0
The Final Dream V1.13A.w3x 924.87 KB 16.03.2020 1
The Glaive.w3x 150.77 KB 13.03.2020 0
The Impossible Map v1.4 - Protected.w3x 789.11 KB 21.03.2020 0
The Last Blade V10,27.w3x 6.82 MB 24.03.2020 2
The Summoning Doom v2.07b (P).w3x 2.42 MB 12.03.2020 2
The Summoning Doom v2.18d2 (P).w3x 7.99 MB 23.01.2020 1
The Summoning Doom v2.18fPre (P).w3x 7.99 MB 06.03.2020 3
The Thing v1.8.w3x 1.32 MB 14.03.2020 0
The WTF map v8.w3x 18.62 KB 15.12.2019 0
The Weakest Link v1.01 (p).w3x 880.89 KB 15.06.2017 7
The World Of Azeroth v8.5c.w3x 7.16 MB 10.02.2020 1
The dark Forest.w3x 50.49 KB 13.10.2019 2
TheBlackRoad2.0.0.w3x 3.58 MB 24.03.2020 0
TheBlackRoadv1.38d2.w3x 4.95 MB 16.03.2020 0
TheImagicaRPGv3.8.w3x 1.09 MB 26.03.2020 4
TheLastHope 3.2.w3x 2.55 MB 06.12.2019 2
TheSnowyFight1.1.w3x 3.1 MB 04.11.2019 1
ToA RPG P-III v1.6.w3x 403.94 KB 20.01.2020 1
Tom and Jerry 2013 v1.09a.w3x 987.58 KB 24.03.2020 0
Tom and Jerry 2014 v1.02.w3x 1.1 MB 25.03.2020 0
TowerWars_1.5.w3m 164.08 KB 31.03.2020 4
Town Fight v2.05.w3x 2.43 MB 23.01.2020 2
Trackmania_0.9t.w3x 405.19 KB 20.01.2020 3
Tree Tag Final v6.94.w3x 174.89 KB 03.02.2020 1
TreeTag,TFI_5.13.w3x 218.18 KB 24.03.2020 0
Troll And Elves 9.1 VN.w3x 2.4 MB 26.01.2020 4
Troll And Elves VN V3.0.w3x 2.26 MB 15.03.2020 0
Troll And Elves v 8.8.6 ENGv13.w3x 1.97 MB 24.01.2020 1
Troll and Elves Final.w3x 2.47 MB 28.08.2017 39
Troll and Elves Rebirth.w3x 2.35 MB 24.03.2020 0
Troll and Elves Speed x2.w3x 2.19 MB 18.03.2020 1
Troll and Elves Speed x4.w3x 1.98 MB 08.08.2019 4
Troll and Elves Speed x5.w3x 2.36 MB 27.02.2019 1
Troll and Elves v8.1.w3x 6.36 MB 25.01.2020 4
Troll vs. Elves 4.6.7.w3x 1.82 MB 04.02.2019 8
Tropical_Tower_Wars_v5.48.w3x 2.57 MB 05.01.2019 22
Tropical_Tower_Wars_v5.49.w3x 2.49 MB 14.10.2018 128
Trump 2016 1.1.w3x 6.71 MB 02.11.2019 4
Twilight's Eve ORPG Final [AF].w3x 7.86 MB 06.09.2018 35
Twilight_s Eve ORPG Final r2.w3x 7.95 MB 08.02.2020 1
Twilights Eve ORPG Final R2.w3x 10.02 MB 13.10.2019 8
Twilights Eve ORPG Final.w3x 7.86 MB 18.02.2020 7
Twilights Eve ORPG [SPMOD-0.4].w3x 7.85 MB 03.11.2018 0
Twisted Meadow.w3x 208.4 KB 13.01.2020 2
U9_AGR_1.0H_fix1 Engv1.w3x 37.63 MB 22.02.2020 1
U9_AGR_1.0H_fix1.w3x 37.63 MB 02.02.2020 2
U9_AGR_1.0H_fix1Engv2.w3x 37.63 MB 23.02.2020 22
U9_Casual RPG N21.2.w3x 40.07 MB 18.02.2020 1
U9_ENRPG3.07A.w3x 29.56 MB 28.01.2020 2
U9_Hope RPG 0.06 Ver. Fix 4.2.w3x 34.81 MB 28.01.2020 4
UltimateDragonball_v.6.1.w3x 8 MB 29.01.2020 15
UltimateDragonballv5.5d.w3x 7.19 MB 13.06.2019 12
Update X Hero Sieqe .w3x 3.77 MB 24.03.2020 0
Uther Party Ultima-X fix0.62.w3x 629.86 KB 29.07.2017 15
Uther Party vUltima-X.w3x 619.47 KB 04.02.2017 24
UtherParty2v0.4d.w3x 140.78 KB 24.02.2020 9
VaOfDeRpg v1.4.17k.w3x 5.43 MB 23.03.2020 17
Vampirism BlaCK v1.63 (p).w3x 619.21 KB 12.03.2020 4
Vampirism SPEED v2.55.w3x 1 MB 28.05.2017 1
VampirismFire5.14c.w3x 1.29 MB 19.03.2020 3
WJRPG_0.09.w3x 30.97 MB 06.12.2019 1
WarCraft Maul NextGen v2.62-p.w3x 594.21 KB 02.04.2020 4
Warlock1.02.w3x 3.99 MB 07.02.2019 59
Waterland Wars v0.3.w3x 8.16 MB 20.01.2020 3
WaugriffsCOTRPG3.1.w3x 2.02 MB 31.03.2020 2
Werewolf - Transylvania 1.27.01.w3x 2.04 MB 21.04.2017 22
Wilderness Survival 4.9a - BPT.w3x 7.92 MB 09.12.2019 5
WinterMaul Solo v1.0.w3x 601.92 KB 30.03.2020 2
Wintermaul X10 Final.w3x 146.86 KB 27.03.2020 0
Wintermaul DV 4.w3m 128.64 KB 30.03.2020 0
Wintermaul DV 4.w3x 142.06 KB 03.02.2019 9
Wintermaul DV FB.w3m 126.62 KB 31.03.2020 4
Wintermaul Hybrid XxNoAxX Beta 5.w3m 3.89 MB 31.03.2020 0
Wintermaul One Revamped v6.w3x 2.52 MB 02.03.2019 32
Wintermaul One Revolution v1.3.w3x 6.9 MB 29.03.2020 7
Wintermaul Two 3.0.w3x 686.93 KB 30.03.2020 1
Wintermaul X-WARS 0.3.w3m 117.51 KB 30.03.2020 1
Wintermaulwars 2019.w3x 121.08 KB 05.01.2020 7
WmW Reborn 18.3.w3x 1.44 MB 29.01.2020 7
WoW Dungeon - SFK 13.5c.w3x 23.44 MB 09.03.2020 1
WoW Dungeon - SFK 16.8c.w3x 28.63 MB 09.03.2020 0
WoWArenaAllstars6.9k.w3x 7.55 MB 08.03.2019 6
WoWArenaFinal.w3x 3.98 MB 30.01.2020 7
X Hero Siege 10.0.1.w3x 2.56 MB 21.11.2019 5
X Hero Siege 10.0.2.w3x 2.65 MB 13.11.2019 3
X Hero Siege 10.0.3.w3x 2.71 MB 16.04.2019 11
X Hero Siege 2019Beta.w3x 5.87 MB 29.10.2019 4
X Hero Siege 3.47.w3x 1.19 MB 11.02.2016 42
X Hero Siege 9.99.w3x 2.47 MB 29.07.2016 1
X Hero Siege Ancient Lords 0.81C.w3x 20.37 MB 27.02.2020 1
X Hero Siege Ancient Lords 0.82B.w3x 20.37 MB 27.02.2020 6
X Hero Siege Ancient Lords 0.85.w3x 10.03 MB 28.02.2020 1
X Hero Siege Ancient Lords 0.87.w3x 459.99 KB 28.02.2020 3
X Hero Siege Ancient Lords 1.11.w3x 2.13 MB 29.02.2020 1
X Hero Siege Ancient Lords 1.50.w3x 5.88 MB 03.03.2020 1
X Hero Siege Ancient Lords 1.55.w3x 7.69 MB 04.03.2020 1
X Hero Siege Ancient Lords 1.56.w3x 7.69 MB 05.03.2020 1
X Hero Siege Ancient Lords 1.60.w3x 7.89 MB 05.03.2020 2
X Hero Siege Ancient Lords 1.62.w3x 7.89 MB 06.03.2020 1
X Hero Siege Ancient Lords 1.63.w3x 7.89 MB 07.03.2020 1
X Hero Siege Ancient Lords 1.69.w3x 7.89 MB 09.03.2020 0
X Hero Siege Ancient Lords 1.73 Fix.w3x 13.79 MB 10.03.2020 0
X Hero Siege Ancient Lords 1.76.w3x 14.08 MB 11.03.2020 1
X Hero Siege Ancient Lords 1.78.w3x 14.09 MB 13.03.2020 0
X Hero Siege Ancient Lords 1.79.w3x 8.38 MB 13.03.2020 1
X Hero Siege Ancient Lords 1.80.w3x 8.38 MB 13.03.2020 4
X Hero Siege Ancient Lords 1.81B.w3x 8.38 MB 14.03.2020 1
X Hero Siege Ancient Lords 1.82.w3x 4.88 MB 14.03.2020 1
X Hero Siege Ancient Lords 1.83.w3x 4.88 MB 14.03.2020 1
X Hero Siege Ancient Lords 1.84.w3x 4.88 MB 15.03.2020 0
X Hero Siege Ancient Lords 1.85.w3x 4.88 MB 15.03.2020 1
X Hero Siege Ancient Lords 1.87.w3x 4.88 MB 16.03.2020 3
X Hero Siege Ancient Lords 1.88.w3x 4.88 MB 17.03.2020 2
X Hero Siege Ancient Lords 1.96 RM.w3x 18.48 MB 27.03.2020 0
X Hero Siege Ancient Lords 2.01F RM.w3x 18.48 MB 01.04.2020 0
X Hero Siege Ancient lords 0.83.w3x 20.37 MB 28.02.2020 2
X Hero Siege Ancient lords 1.03B.w3x 472.05 KB 28.02.2020 4
X Hero Siege Anicent Lords 0.80B.w3x 20.37 MB 27.02.2020 1
X Hero Siege Cerfelios 9.1ao.w3x 8.81 MB 26.02.2020 1
X Hero Siege D-Day v1.6a.w3x 5.56 MB 03.09.2019 0
X Hero Siege v3.45z .w3x 575.88 KB 06.10.2019 2
X Hero Siege v4.80.w3x 4.55 MB 06.10.2019 2
X Hero Siege v9.3f.w3x 4.39 MB 23.03.2020 0
X Hero siege especial.w3x 1.04 MB 24.03.2020 0
X Hero siege v11.6.9.w3x 2.45 MB 26.12.2019 3
X hero Siege Final.w3x 2.16 MB 21.02.2019 4
X3v2.53WV4-961.w3x 7 MB 26.09.2019 1
X3v2.53a-961f-tinker-hotfix.w3x 6.89 MB 27.01.2020 1
X_Hero_Siege_3.30.w3x 369.94 KB 13.08.2019 0
X_Hero_Siege_3.33.w3x 503.42 KB 10.08.2018 77
X_Hero_Siege_3.36.w3x 466.74 KB 07.10.2019 3
X_Hero_Siege_3.45.w3x 377.42 KB 17.08.2019 10
X_Hero_Siege_3.49.w3x 551.09 KB 24.03.2020 1
X_Hero_Siege_4.80.w3x 981.51 KB 15.10.2019 2
YouTD v1.10c.w3x 2.69 MB 07.12.2019 2
YouTD_v1.09.w3x 2.48 MB 07.02.2020 16
YouTD_v1.10b.w3x 2.67 MB 06.10.2018 167
Yugioh TD Maze by xWisHx v1.w3x 1.14 MB 31.01.2020 3
ZAF v1.03.w3x 7.94 MB 30.01.2020 1
ZN_1_18c.w3x 695.39 KB 11.08.2019 1
ZiemniaczanaArena-4.0-no-intro.w3x 12.28 MB 13.03.2020 2
Zoator Survivor TD Final.w3x 203.15 KB 21.03.2020 0
Zoator TD Final Classic.w3x 131.81 KB 21.03.2020 1
Zombie Invasion Ultimate 2019.w3x 867.7 KB 17.03.2020 8
ZombieSeige2.21.w3x 123.16 KB 17.03.2020 0
[AF]_Twilight_s_Eve_ORPG_Final.w3x 6.81 MB 21.11.2019 9
[BK's] Gem TD v4.0.w3x 1.15 MB 26.12.2018 29
[BK's] Gem TD v4.0kn.w3x 515.72 KB 27.06.2013 3
[BKs] Gem Tower Defense v3.1.w3x 554.76 KB 27.03.2020 0
[CDR] twrpgS4v0.22o_eng.w3x 40.02 MB 27.09.2019 1
[Drop]twrpgS4v0.23e_eng.w3x 45.81 MB 30.03.2020 0
[g]et_v16jp.w3x 863.45 KB 14.03.2020 1
anime_x_hero_v3.8esx.w3x 7.52 MB 22.02.2020 2
art-of-defense-v1.50.w3x 14.12 MB 19.01.2020 1
bossandwillrpg5.5f.w3x 39.76 MB 19.01.2020 26
dbu_b8.w3x 17.66 MB 29.10.2019 1
dota gus ultima.w3x 290.33 KB 29.03.2020 0
eden rpg eng 4.5a6.w3x 81.82 MB 07.12.2019 19
eden rpg eng 4.8e.w3x 82.32 MB 12.01.2020 102
eden rpg eng 4.8g.w3x 82.53 MB 20.01.2020 160
eden rpg eng 5.0f.w3x 81.41 MB 03.03.2020 18
eden rpg eng 5.1g.w3x 84.73 MB 18.03.2020 22
emsh.w3x 193.22 KB 03.02.2020 1
etales1.3.1.w3x 9.81 MB 24.02.2020 3
fortress_survival_alpha.ABKEdition.w3x 2.48 MB 16.03.2020 3
fun.w3x 173.51 KB 09.12.2019 0
gachatesttranslate.w3x 37.63 MB 21.02.2020 1
gggf7760_eng_1.1_slk.w3x 50.06 MB 23.03.2020 9
gladiator1.5b.w3m 1.93 MB 12.01.2020 1
hoihoi8 Custom Hero Survival.w3x 450.45 KB 21.01.2020 4
hoihoi8s Custom Hero Survival v2.08.w3x 454.27 KB 15.03.2020 0
illidans.w3x 213.17 KB 28.03.2020 4
line tower wars 7 v1.1.w3m 60.8 KB 29.03.2020 2
mlorpg1.00f ENG.w3x 25.27 MB 06.11.2019 1
mlorpg1.00r eng.w3x 30.48 MB 04.12.2019 0
mlorpg1.00t.w3x 28.16 MB 09.12.2019 0
mlorpg1.00t_2.w3x 28.16 MB 10.12.2019 0
mlorpg1.00v eng.w3x 28.14 MB 16.12.2019 38
mlorpg1.00v.w3x 28.16 MB 10.12.2019 0
mlrpg1.00z eng.w3x 37.3 MB 11.01.2020 9
mlrpg1.00z.w3x 37.32 MB 08.01.2020 29
mlrpg1.01b eng.w3x 37.42 MB 12.01.2020 792
mlrpg1.01b.w3x 37.44 MB 11.01.2020 4
mlrpg1.01g eng.w3x 37.42 MB 10.02.2020 1076
n301c2p.w3x 36.48 MB 30.01.2020 1
nV-Spiral Survivor Final.w3m 129.91 KB 18.12.2019 1
opt - The Black Road v1.33.w3x 3.76 MB 25.12.2019 1
opt-Soldier_Tower_Defense_v6.6_English.w3x 101.21 KB 27.03.2020 0
opt-The Black Road v1.2.w3x 4 MB 31.03.2020 1
opt-The Black Road v1.3.w3x 3.78 MB 31.03.2020 3
opt-The Black Road v1.34b.w3x 3.91 MB 11.03.2020 2
opt_NinpouStorm5.5fix1.w3x 94.73 MB 25.03.2020 2
risk revolution 3.1.w3x 459.16 KB 12.01.2020 1
s Island TFT.w3x 216.06 KB 24.03.2020 0
simple td.w3x 31.61 KB 21.03.2020 0
small forest walk.w3x 39.7 KB 22.02.2020 3
tbw 1.9j eng v6.w3x 7.48 MB 19.03.2020 0
teste para retardados 13.0.w3x 226.69 KB 29.03.2020 2
twrpgS4v0.29c_eng.w3x 39.56 MB 03.12.2019 0
twrpgS4v0.29f_eng.w3x 39.88 MB 10.12.2019 0
twrpgS4v0.29t_eng.w3x 39.89 MB 20.12.2019 0
twrpgS4v0.30c_eng.w3x 39.96 MB 23.12.2019 0
twrpgS4v0.30d_eng.w3x 39.96 MB 24.12.2019 0
twrpgS4v0.30e_eng.w3x 39.96 MB 25.12.2019 31
twrpgS4v0.31a_eng.w3x 39.96 MB 06.01.2020 65
twrpgS4v0.31e_eng.w3x 39.97 MB 12.01.2020 173
twrpgS4v0.32a_eng.w3x 39.97 MB 29.01.2020 13
twrpgS4v0.32a_engReforged.w3x 40.78 MB 03.02.2020 4
twrpgS4v0.32b_eng.w3x 39.97 MB 12.02.2020 63
twrpgS4v0.32c_eng.w3x 39.97 MB 22.02.2020 31
twrpgS4v0.32e_eng.w3x 40.78 MB 27.01.2020 2
twrpgS4v0.32g_eng.w3x 39.97 MB 02.03.2020 60
twrpgv0.32p_eng.w3x 39.97 MB 10.03.2020 90
twrpgv0.32x_eng.w3x 39.97 MB 17.03.2020 73
twrpgv0.32z_eng.w3x 39.98 MB 22.03.2020 84
twrpgv0.33b_eng.w3x 39.87 MB 31.03.2020 11
twrpgv0.33c_eng.w3x 39.87 MB 01.04.2020 37
twrpgv0.33d_eng.w3x 39.87 MB 01.04.2020 6
werewolf_-_transylvania_1.25.w3x 2.79 MB 31.03.2020 0